www.pogodaiklimat.ru

Погода и климат >> Архив погоды >> Португалия >> Порту-Санту


ПОГОДА на Порту-Санту

  • Прогноз погоды на Порту-Санту
  • Монитор погоды на Порту-Санту

АРХИВ ПОГОДЫ на Порту-Санту

Время (UTC), дата Ветер
(напр.,м/с)
 
Видим.   Явления Облачность Т
(С)
Тd
(С)
f
(%)
Тe
(С)
Тes
(С)
Комфортность P
(гПа)
Po
(гПа)
Тmin
(С)
Tmax
(С)
R
(мм)
R24
(мм)
S
(см)
06 17.02 З 4 н/о н/о +15.1 +12.4 84 +14 +14 1022.2 1012.4 +13.3
09 17.02 СЗ 3
{6}
20 км 8/8 360 м
[Cu Sc Ac trans]
+16.1 +13.3 83 +16 +16 1022.6 1012.8
12 17.02 З 4
{7}
10 км осадки на расстоянии 9/9 300 м
[Cu Sc Ac trans]
+17.0 +14.1 83 +17 +17 1023.1 1013.3
15 17.02 З 5
{8}
9000 м слаб. дождь 10/10 210 м
[Cu Sc]
+14.1 +12.9 92 +12 +12 1021.5 1011.6 2
18 17.02 С 16
{25}
15 км {дождь} 9/8 420 м
[Cu Sc Ac lent Ci sp]
+15.0 +11.2 78 +12 +12 1021.6 1011.8 +17.3 9
21 17.02 С 8-12
{13}
15 км 6/6 450 м
[Cu Sc Ci fib]
+15.0 +9.3 69 +13 +13 1023.4 1013.6 9
00 18.02 С 19-31
{31}
15 км 8/8 450 м
[Cu Sc Ci fib]
+14.5 +8.4 67 +11 +11 1024.2 1014.4
03 18.02 С 8-14
{14}
15 км 5/5 450 м
[Cu Sc]
+14.2 +5.7 57 +12 +12 1023.9 1014.0
06 18.02 С 7-12
{16}
15 км 5/5 450 м
[Cu Sc]
+13.9 +8.9 72 +12 +12 1023.5 1013.6 +13.3
09 18.02 С 8-13
{15}
20 км 5/5 450 м
[Cu Sc Ci fib]
+14.2 +8.0 66 +12 +12 1024.7 1014.9
12 18.02 С 16-23
{25}
20 км 6/6 450 м
[Cu Sc Ac lent Ci fib]
+16.1 +7.8 58 +14 +14 1025.7 1015.8
15 18.02 С 9 20 км 5/5 450 м
[Cu Sc]
+16.1 +7.4 56 +14 +15 1024.3 1014.5
18 18.02 С 7-11
{11}
20 км 5/5 450 м
[Cu Sc]
+14.9 +6.8 58 +13 +13 1023.9 1014.1 +17.3
21 18.02 С 7 20 км 8/8 450 м
[Cu Sc]
+14.5 +6.5 59 +13 +13 1025.0 1015.1
00 19.02 С 10
{19}
20 км 8/8 450 м
[Cu Sc]
+14.1 +5.4 56 +11 +11 1025.4 1015.5
03 19.02 С 4
{7}
20 км 6/6 450 м
[Cu Sc]
+13.8 +6.2 60 +12 +12 1024.3 1014.5
06 19.02 С 8-14
{14}
20 км 9/9 450 м
[Cu Sc]
+14.1 +7.5 64 +12 +12 1022.9 1013.0 +12.9
09 19.02 С 3-6
{7}
20 км 9/9 450 м
[Cu Sc]
+14.2 +8.1 67 +13 +14 1023.5 1013.7
12 19.02 С 4-6
{7}
20 км 4/4 450 м
[Cu Sc]
+16.9 +7.1 52 +16 +21 1023.4 1013.7
15 19.02 С 4-7
{7}
20 км 6/6 450 м
[Cu Sc]
+15.7 +8.5 62 +15 +17 1022.1 1012.3
18 19.02 С 4-7
{8}
20 км 9/9 400 м
[Cu Sc]
+14.8 +8.7 67 +14 +14 1021.4 1011.6 +17.8
21 19.02 С 2
{5}
20 км 8/8 450 м
[Cu Sc]
+14.3 +7.7 64 +14 +14 1021.9 1012.1
00 20.02 штиль 0 20 км 9/9 450 м
[Cu Sc]
+14.1 +8.6 69 +14 +14 1022.1 1012.2
03 20.02 С 2 20 км 9/9 450 м
[Cu Sc]
+14.3 +8.0 66 +14 +14 1021.2 1011.3
06 20.02 С 1 20 км 9/9 450 м
[Cu Sc]
+13.5 +8.3 71 +14 +14 1020.2 1010.3 +12.8
09 20.02 В 3
{5}
25 км 9/9 450 м
[Cu Sc]
+13.3 +10.5 83 +12 +12 1021.4 1011.5
12 20.02 С 3
{5}
25 км 9/6 450 м
[Cu Sc Ci fib]
+17.2 +8.3 56 +17 +20 1021.9 1012.1
15 20.02 ЮВ 4
{7}
25 км 5/1 450 м
[Cu hum Ci fib]
+17.4 +9.3 59 +17 +22 1019.8 1010.0
18 20.02 Ю 5 20 км 8/3 450 м
[Cu Sc Ac trans Ci fib]
+16.2 +8.9 62 +15 +15 1019.4 1009.6 +18.5
21 20.02 Ю 5
{9}
20 км 8/4 450 м
[Cu Sc Ci fib]
+16.0 +10.3 69 +15 +15 1019.6 1009.8
00 21.02 Ю 10
{17}
15 км 9/9 450 м
[Cu Sc Ci fib]
+16.4 +9.6 64 +15 +15 1019.6 1009.8
03 21.02 Ю 6
{9}
н/о н/о +16.1 +8.0 59 +15 +15 1018.1 1008.4
06 21.02 Ю 7
{12}
15 км 9/9 450 м
[Cu Sc]
+16.2 +9.2 63 +15 +15 1017.4 1007.6 +15.8
09 21.02 Ю 9 20 км 9/9 450 м
[Cu Sc]
+16.7 +9.2 61 +15 +15 1019.2 1009.5
12 21.02 Ю 11 20 км 9/8 450 м
[Cu Sc Ci fib]
+17.8 +9.9 60 +16 +16 1018.8 1009.1
15 21.02 Ю 11 20 км 4/3 450 м
[Cu Sc Ac trans]
+19.5 +10.1 55 +20 +20 1018.3 1008.6
18 21.02 Ю 17 20 км 6/4 450 м
[Cu Sc Ac trans Cs]
+17.8 +11.8 68 +16 +16 1018.5 1008.8 +19.8
21 21.02 Ю 6-10
{12}
20 км 6/4 450 м
[Cu Sc Ac trans Ci fib]
+16.7 +11.9 73 +16 +16 1020.7 1011.0
00 22.02 Ю 8 20 км 8/4 450 м
[Cu Sc Ac As Ci fib]
+17.0 +11.9 72 +16 +16 1020.8 1011.0
03 22.02 Ю 9 20 км 8/3 450 м
[Cu Sc Ac trans Cs]
+16.7 +12.5 76 +15 +15 1019.6 1009.9
06 22.02 Ю 9
{14}
20 км 9/3 450 м
[Cu Sc Ac trans Cs]
+16.6 +11.8 73 +15 +15 1019.4 1009.7 +16.3
09 22.02 Ю 9 15 км 8/4 450 м
[Cu hum Ac As Ci fib]
+17.4 +13.8 79 +16 +16 1021.3 1011.5
12 22.02 Ю 17 15 км 6/3 450 м
[Cu hum Ac trans Ci sp]
+19.3 +15.0 76 +19 +19 1022.3 1012.6
15 22.02 Ю 8 15 км 6/1 360 м
[Cu hum Ac trans Ci]
+19.9 +15.5 76 +22 +23 комфорт 1020.8 1011.1
18 22.02 ЮВ 5
{8}
15 км 5/1 360 м
[Cu hum Ac trans Cs]
+17.9 +15.6 86 +17 +18 1021.4 1011.7 +20.4
21 22.02 ЮВ 1
{5}
15 км 8/1 330 м
[Cu hum Ac trans Cs]
+17.1 +16.0 93 +18 +18 1023.6 1013.9
00 23.02 ЮВ 4-6
{6}
15 км 8/1 360 м
[Cu hum Ac trans Cs]
+16.7 +16.1 96 +16 +16 1023.5 1013.7
03 23.02 ЮВ 4 15 км 8/4 300 м
[Cu hum Ac trans Cs]
+16.8 +16.1 96 +16 +16 1023.7 1013.9
06 23.02 С 1 15 км 8/5 300 м
[Cu hum Ac trans Cs]
+14.3 +13.9 97 +15 +15 1023.7 1013.9 +14.3
09 23.02 ЮВ 5 7000 м {морось} 9/4 150 м
[Cu Sc Ac trans Cs]
+17.2 +16.6 96 +17 +17 1024.8 1015.1
12 23.02 ЮВ 5-8
{8}
8000 м 4/1 300 м
[Cu hum Ci fib]
+20.2 +14.8 71 +23 +27 комфорт 1025.2 1015.5 0.1
15 23.02 ЮВ 6 8000 м 4/0
[Ci fib]
+21.2 +13.1 60 +24 +27 комфорт 1023.1 1013.5
18 23.02 ЮВ 10 10 км 6/0
[Cs]
+19.4 +15.1 76 +20 +20 1023.0 1013.3 +21.8 0.1
21 23.02 ЮВ 3 10 км 5/0
[Ci]
+17.3 +15.9 91 +17 +17 1023.8 1014.0
00 24.02 ЮВ 3 7000 м 8/1 360 м
[Cu hum Ac trans Cs]
+16.7 +15.8 94 +16 +16 1024.2 1014.4
03 24.02 ЮВ 3 7000 м 8/0 2000 м
[Ac trans Cs]
+16.4 +15.7 96 +16 +16 1023.0 1013.2

 

Местоположение метеостанции Порту-Санту (Португалия): широта 33.07 долгота -16.35 высота над уровнем моря 82 м.

В архиве по умолчанию представлена погода на Порту-Санту за последнюю неделю. Архивные данные за месяц целиком и за предыдущие месяцы, начиная с января 2011 года, Вы можете получить, выбрав интересующий диапазон дат из раскрывающегося списка и нажав кнопку "Ввод!".


*Определитесь, кто Вы:
робот инопланетянин человек

Внимание! Время в таблицах - всемирное. Для получения местного времени необходимо прибавить поправку, которая равна 0 ч.

Смотрите также архив погоды в соседних городах и на ближайших метеорологических станциях:

Погода в Санта-Катарине (Португалия) (58 км)
Погода в Финшале (Португалия) (71 км)
Погода на Тенерифе (Канарские Острова) (512 км)
Погода на Пальме (Канарские Острова) (513 км)
Погода в Санта-Круз-де-Тенерифе (Канарские Острова) (514 км)
Погода в Аэропорту Лансароте (Канарские Острова) (528 км)
Погода в Тенерифе-Гуимаре (Канарские Острова) (528 км)
Погода в Обсерватории Izana (Канарские Острова) (531 км)
Погода в Аэропорту Рейна-София (Канарские Острова) (559 км)
Погода в Аэропорту Фуэртевентура (Канарские Острова) (566 км)

Пояснения к столбцам:

Ветер - указаны скорость ветра в м/с - средняя за 10 мин, порывы в срок и между сроками (в фигурных скобках) и направление, откуда дует ветер: С - северный, СВ - северо-восточный, В - восточный, ЮВ - юго-восточный, Ю - южный, ЮЗ - юго-западный, З - западный, СЗ - северо-западный.
Видимость - горизонтальная дальность видимости в метрах или километрах. При видимости от 1 до 10 км при отсутствии осадков обычно наблюдается дымка, при ухудшении видимости до 1 км и менее - туман. В сухую погоду видимость может ухудшаться дымом, пылью или мглою.
Явления - указаны атмосферные явления, наблюдавшиеся в срок или в последний час перед сроком; фигурными скобками обозначены явления, наблюдавшиеся между сроками (за 1-3 часа до срока); квадратными скобками обозначены град или гололедные отложения с указанием их диаметра в мм.
Облачность - указаны через наклонную черту общая и нижняя облачность в баллах и высота нижней границы облаков в метрах; квадратными скобками обозначены формы облаков: Ci - перистые, Cs - перисто-слоистые, Cc - перисто-кучевые, Ac - высококучевые, As - высокослоистые, Sc - слоисто-кучевые, Ns - слоисто-дождевые, Cu - кучевые, Cb - кучево-дождевые. Подробнее классификацию облаков см. в Атласе облаков (PDF).
T - Температура воздуха - температура, измеренная на высоте 2 м над землей.
Td - Температура точки росы - температура, при понижении до которой содержащийся в воздухе водяной пар достигнет насыщения.
f - Относительная влажность воздуха - влажноcть воздуха, измеренная на высоте 2 м над землей.
Te - Эффективная температура - температура, которую ощущает одетый по сезону человек в тени. Характеристика душности погоды. При расчете учитывается влияние влажности воздуха и скорости ветра на теплоощущения человека.
Tes - Эффективная температура на солнце - температура, которую ощущает человек, с поправкой на солнечный нагрев. Характеристика знойности погоды. Зависит от высоты солнца над горизонтом, облачности и скорости ветра. Ночью, в пасмурную погоду, а также при ветре 12 м/с и более поправка равна нулю.
P - Атмосферное давление - приведенное к уровню моря атмосферное давление.
Po - Атмосферное давление - измеренное на уровне метеостанции атмосферное давление.
Tmin - Минимальная температура - минимум температуры воздуха на высоте 2 м над землей.
Tmax - Максимальная температура - максимум температуры воздуха на высоте 2 м над землей.
R - Количество осадков - Количество выпавших осадков за период времени, мм. При наведении курсора мыши на число - период времени, за который выпало указанное количество осадков.
R24 - Количество осадков - Количество выпавших осадков за 24 часа, мм.
S - Снежный покров - Высота снежного покрова, см. При наведении курсора мыши на число - состояние снежного покрова и степень покрытия местности в баллах.